Location: ??????
(41.3164°N, 22.6615°E)
Time: 09:12:09
(UTC+00:00)

Cosmos 1470 - Pass Details

Date: 16 October 2021
Orbit: 519 x 541 km, 82.5° (Epoch: 07 December)

Event Time Altitude Azimuth Distance (km) Brightness Sun altitude
Rises 16:18:55 0° 196° (SSW) 2,685 6.7 -6.8°
Reaches altitude 10° 16:21:05 10° 201° (SSW) 1,799 5.8 -7.2°
Maximum altitude 16:24:58 56° 280° (W) 653 3.6 -7.9°
Drops below altitude 10° 16:28:54 10° 359° (N) 1,813 5.4 -8.6°
Sets 16:31:06 0° 4° (N) 2,709 6.3 -9.1°
